Regional Weather Roundup
Issued by NWS

Home | Current Version | Previous Version | Graphics & Text | Print | Product List | Glossary On
Versions: 1 2 3 4 5 6 7 8 9 10 11 12 13 14 15 16 17 18 19 20 21 22 23 24 25 26 27 28 29 30 31 32 33 34 35 36 37 38 39 40 41 42 43 44 45 46 47 48 49 50
000
ASUS43 KOAX 310210
RWRNE

WEATHER ROUNDUP FOR NEBRASKA
NATIONAL WEATHER SERVICE OMAHA NE
900 PM CDT THU JUL 30 2015

NOTES: SATELLITE DATA IS BEING USED TO AUGMENT CLOUD COVER ABOVE
       12000 FEET.
       "FAIR" INDICATES FEW OR NO CLOUDS BELOW 12,000 FEET WITH NO
       SIGNIFICANT WEATHER AND/OR OBSTRUCTIONS TO VISIBILITY.

  * THESE STATIONS DO NOT REPORT WEATHER SUCH AS RAIN...SNOW OR FOG.

NEZ001>004-019>022-054>056-310300-
NEBRASKA PANHANDLE

CITY           SKY/WX    TMP DP  RH WIND       PRES   REMARKS
SCOTTSBLUFF    CLEAR     77  52  41 NE9       30.21S
ALLIANCE       CLEAR     76  53  44 NE7       30.22R
CHADRON        CLEAR     80  51  36 E5        30.19R
KIMBALL        CLEAR     73  56  54 E7        30.26S
SIDNEY         CLEAR     75  61  61 SE7       30.26R
$$

NEZ057>060-069>072-079>082-310300-
SOUTHWEST NEBRASKA

CITY           SKY/WX    TMP DP  RH WIND       PRES   REMARKS
NORTH PLATTE   CLOUDY    74  64  71 E5        30.17R
IMPERIAL       CLOUDY    81  58  45 E7        30.19R
LEXINGTON      MOCLDY    78  67  69 SE5       30.16S
MCCOOK         MOCLDY    80  63  55 SE7       30.16R
OGALLALA       MOCLDY    71  64  76 N13       30.21R
$$

NEZ005>010-023>029-035>040-094-310300-
NORTH CENTRAL NEBRASKA

CITY           SKY/WX    TMP DP  RH WIND       PRES   REMARKS
VALENTINE      CLEAR     82  49  31 N6        30.17R
AINSWORTH      CLEAR     76  60  57 E6        30.17R
BROKEN BOW     MOCLDY    78  68  71 CALM      30.15S
O`NEILL        CLOUDY    82  66  58 CALM      30.13S
ORD            PTCLDY    77  66  68 S6        30.11S
THEDFORD       PTCLDY    77  60  56 SW7       30.19S
$$

NEZ041-046>049-061>064-073>077-083>087-310300-
SOUTH CENTRAL NEBRASKA

CITY           SKY/WX    TMP DP  RH WIND       PRES   REMARKS
GRAND ISLAND   PTCLDY    78  67  68 S5        30.14S
AURORA         PTCLDY    75  69  80 SE3       30.13F
HASTINGS       PTCLDY    80  66  62 SE9       30.14F
HEBRON         PTCLDY    75  65  71 SE5       30.14S
HOLDREGE       MOCLDY    77  68  73 SE5       30.16S
KEARNEY *      PTCLDY    79  66  65 SE7       30.15S
YORK           CLEAR     77  66  69 S5        30.14S
$$

NEZ011>018-030>034-042>045-310300-
NORTHEAST NEBRASKA

CITY           SKY/WX    TMP DP  RH WIND       PRES   REMARKS
NORFOLK        PTCLDY    77  65  66 E3        30.11S
ALBION         PTCLDY    76  66  71 CALM      30.11F
BLAIR          CLEAR     79  64  61 CALM      30.11S
COLUMBUS *     PTCLDY    77  64  65 S5        30.11S
FREMONT        CLEAR     80  65  61 S3        30.11F
TEKAMAH        MOCLDY    75  72  90 S3        30.09S
WAYNE          CLEAR     75  69  81 CALM      30.11R
$$

NEZ050>053-065>068-078-088>093-310300-
SOUTHEAST NEBRASKA

CITY           SKY/WX    TMP DP  RH WIND       PRES   REMARKS
LINCOLN        CLEAR     79  59  50 S7        30.12S
OMAHA EPPLEY   PTCLDY    80  71  74 CALM      30.10S
BEATRICE       CLEAR     78  60  54 S5        30.13S
FALLS CITY     CLEAR     79  67  66 S3        30.12S
NEBRASKA CITY  CLEAR     76  63  63 S3        30.13S
PLATTSMOUTH    PTCLDY    75  65  73 S7        30.12S
$$

NEZ044-045-051>053-067-310300-
OMAHA AREA

CITY           SKY/WX    TMP DP  RH WIND       PRES   REMARKS
OMAHA EPPLEY   PTCLDY    80  71  74 CALM      30.10S
BLAIR          CLEAR     79  64  61 CALM      30.11S
FREMONT        CLEAR     80  65  61 S3        30.11F
MILLARD        CLEAR     82  66  58 CALM      30.10S
OFFUTT AFB     CLEAR     81  65  58 SW3       30.10S
PLATTSMOUTH    PTCLDY    75  65  73 S7        30.12S
WAHOO          FAIR      78  68  72 CALM      30.11S
$$



USA.gov is the U.S. government's official web portal to all federal, state and local government web resources and services.